Weather History for Appleton, WI

Change the Weather History Date:

Sunday, March 23, 2014

  Actual Average Record
Temperature  
Mean Temperature 17 °F -  
Max Temperature 24 °F 43 °F 64 °F (1987)
Min Temperature 10 °F 24 °F 1 °F (1974)
Degree Days  
Heating Degree Days 48    
Moisture  
Dew Point 4 °F    
Average Humidity 60    
Maximum Humidity 73    
Minimum Humidity 43    
Precipitation  
Precipitation 0.00 in - - ()
Sea Level Pressure  
Sea Level Pressure 30.38 in    
Wind  
Wind Speed 10 mph (NW)    
Max Wind Speed 17 mph    
Max Gust Speed -    
Visibility 10 miles    
Events      
Averages and records for this station are not official NWS values.
T = Trace of Precipitation, MM = Missing Value Source: NWS Daily Summary

Daily Weather History Graph

Daily Weather History Graph

Search for Another Location

Airport:

Trip Planner

Search our weather history database for the weather conditions in past years. The results will help you decide how hot, cold, wet, or windy it might be!

Date:

Astronomy

Mar. 23, 2014 Rise Set
Actual Time 6:51 AM CDT 7:10 PM CDT
Civil Twilight 6:22 AM CDT 7:39 PM CDT
Nautical Twilight 5:48 AM CDT 8:13 PM CDT
Astronomical Twilight 5:13 AM CDT 8:48 PM CDT
Moon 1:37 AM CDT (3/23) 11:22 AM CDT (3/23)
Length of Visible Light 13h 16m
Length of Day
12h 18m
Waning Gibbous, 54% of the Moon is Illuminated
Mar 23
Waning Gibbous
Mar 23
Last Quarter
Mar 30
New
Apr 7
First Quarter
Apr 15
Full

Hourly Weather History & Observations

Time (CDT) Temp. Windchill Dew Point Humidity Pressure Visibility Wind Dir Wind Speed Gust Speed Precip Events Conditions
12:15 AM 17.6 °F 3.7 °F 5.0 °F 58% 30.37 in 10.0 mi NNW 13.8 mph - N/A   Clear
12:35 AM 17.6 °F 3.2 °F 5.0 °F 58% 30.37 in 10.0 mi North 15.0 mph - N/A   Clear
12:55 AM 17.6 °F 3.2 °F 5.0 °F 58% 30.38 in 10.0 mi NNW 15.0 mph - N/A   Clear
1:15 AM 15.8 °F 4.2 °F 5.0 °F 62% 30.38 in 10.0 mi NNW 9.2 mph - N/A   Clear
1:35 AM 15.8 °F 3.4 °F 5.0 °F 62% 30.39 in 10.0 mi NNW 10.4 mph - N/A   Clear
1:55 AM 14.0 °F 2.0 °F 3.2 °F 62% 30.40 in 10.0 mi NNW 9.2 mph - N/A   Clear
2:15 AM 14.0 °F 0.5 °F 3.2 °F 62% 30.40 in 10.0 mi NNW 11.5 mph - N/A   Clear
2:35 AM 14.0 °F 3.9 °F 3.2 °F 62% 30.40 in 10.0 mi NNW 6.9 mph - N/A   Clear
2:55 AM 14.0 °F 2.0 °F 3.2 °F 62% 30.40 in 10.0 mi NNW 9.2 mph - N/A   Clear
3:15 AM 14.0 °F 2.9 °F 3.2 °F 62% 30.40 in 10.0 mi NNW 8.1 mph - N/A   Clear
3:35 AM 12.2 °F 0.7 °F 3.2 °F 67% 30.40 in 10.0 mi NW 8.1 mph - N/A   Clear
3:55 AM 12.2 °F 1.7 °F 3.2 °F 67% 30.40 in 10.0 mi NW 6.9 mph - N/A   Clear
4:15 AM 12.2 °F 0.7 °F 3.2 °F 67% 30.40 in 10.0 mi NW 8.1 mph - N/A   Clear
4:35 AM 12.2 °F 1.7 °F 3.2 °F 67% 30.41 in 10.0 mi NW 6.9 mph - N/A   Clear
4:55 AM 12.2 °F 1.7 °F 3.2 °F 67% 30.41 in 10.0 mi WNW 6.9 mph - N/A   Clear
5:15 AM 12.2 °F 2.9 °F 3.2 °F 67% 30.41 in 10.0 mi WNW 5.8 mph - N/A   Clear
5:20 AM 10.4 °F -0.4 °F 3.2 °F 73% 30.41 in 10.0 mi WNW 6.9 mph - N/A   Clear
5:45 AM 10.4 °F 0.8 °F 3.2 °F 73% 30.41 in 10.0 mi WNW 5.8 mph - N/A   Clear
6:45 AM 10.4 °F -0.4 °F 3.2 °F 73% 30.42 in 10.0 mi WNW 6.9 mph - N/A   Clear
7:45 AM 10.4 °F -1.5 °F 3.2 °F 73% 30.42 in 10.0 mi WNW 8.1 mph - N/A   Clear
8:45 AM 12.2 °F 0.7 °F 3.2 °F 67% 30.42 in 10.0 mi WNW 8.1 mph - N/A   Clear
9:45 AM 14.0 °F 2.9 °F 3.2 °F 62% 30.42 in 10.0 mi NW 8.1 mph - N/A   Scattered Clouds
10:45 AM 17.6 °F 7.3 °F 3.2 °F 53% 30.43 in 10.0 mi WNW 8.1 mph - N/A   Scattered Clouds
11:45 AM 17.6 °F 4.3 °F 1.4 °F 49% 30.41 in 10.0 mi West 12.7 mph - N/A   Scattered Clouds
12:45 PM 19.4 °F 9.5 °F 3.2 °F 49% 30.40 in 10.0 mi NW 8.1 mph - N/A   Scattered Clouds
1:45 PM 21.2 °F 12.6 °F 3.2 °F 46% 30.37 in 10.0 mi NW 6.9 mph - N/A   Mostly Cloudy
2:45 PM 23.0 °F 9.6 °F 6.8 °F 50% 30.35 in 10.0 mi WNW 16.1 mph - N/A   Mostly Cloudy
3:45 PM 23.0 °F 9.2 °F 3.2 °F 43% 30.34 in 10.0 mi WNW 17.3 mph - N/A   Mostly Cloudy
4:45 PM 24.8 °F 12.9 °F 5.0 °F 43% 30.33 in 10.0 mi West 13.8 mph - N/A   Scattered Clouds
5:45 PM 23.0 °F 12.4 °F 5.0 °F 46% 30.33 in 10.0 mi WNW 10.4 mph - N/A   Mostly Cloudy
6:45 PM 21.2 °F 10.9 °F 3.2 °F 46% 30.34 in 10.0 mi NW 9.2 mph - N/A   Scattered Clouds
7:45 PM 19.4 °F 7.9 °F 3.2 °F 49% 30.34 in 10.0 mi WNW 10.4 mph - N/A   Clear
8:45 PM 17.6 °F 7.3 °F 3.2 °F 53% 30.34 in 10.0 mi WNW 8.1 mph - N/A   Clear
9:45 PM 15.8 °F 3.4 °F 5.0 °F 62% 30.34 in 10.0 mi WNW 10.4 mph - N/A   Clear
10:45 PM 15.8 °F 5.1 °F 3.2 °F 58% 30.34 in 10.0 mi NW 8.1 mph - N/A   Clear
11:15 PM 15.8 °F 4.2 °F 5.0 °F 62% 30.34 in 10.0 mi WNW 9.2 mph - N/A   Clear
11:35 PM 15.8 °F 5.1 °F 5.0 °F 62% 30.33 in 10.0 mi WNW 8.1 mph - N/A   Clear
11:55 PM 15.8 °F 5.1 °F 5.0 °F 62% 30.33 in 10.0 mi WNW 8.1 mph - N/A   Clear